Temp
14 13 13 14 14 14 14 14 14 14 14 14 14 14 13 13 13 13 12 13 13 13 12 12 12 12 11 10 10 9 8 7 6 3 3 1 1 1 1 1 1 0 0
13 13 13 13 13 14 14 14 14 14 14 14 14 13 13 13 13 13 13 13 14 13 12 11 11 12 11 10 10 9 8 8 7 4 4 3 2 1 0 0 0 0 -1
13 13 13 13 13 13 13 13 13 13 13 13 14 13 13 13 13 13 13 13 13 13 13 12 11 11 11 10 10 9 8 8 6 6 4 3 1 1 1 0 -0 -0 -1
15 14 14 13 13 13 13 13 13 13 13 13 13 13 13 12 12 12 13 13 13 13 13 12 11 11 11 11 10 9 8 8 6 6 4 3 1 1 0 0 0 -0 -0
14 14 14 14 13 13 13 13 13 13 13 13 13 13 12 12 12 12 13 13 13 13 13 12 12 11 11 10 10 9 9 8 7 6 5 3 1 0 0 -0 -0 0 0
11 14 14 14 14 13 13 13 13 13 13 13 13 12 12 12 12 12 12 12 13 13 13 13 12 11 11 10 10 9 9 8 7 6 5 4 2 1 0 0 -0 -0 -0
14 15 14 14 14 13 13 13 13 13 12 12 12 12 12 12 12 12 12 12 12 12 13 13 12 11 10 11 10 9 9 9 7 6 5 4 3 2 1 1 0 -0 -0
14 14 14 14 14 14 13 13 13 12 12 12 11 12 12 12 12 11 11 12 12 12 12 12 12 12 11 11 10 9 9 9 8 7 6 5 4 2 2 1 0 -0 -0
13 14 14 14 14 14 14 13 13 13 12 12 11 11 11 11 12 11 11 11 11 12 12 12 12 12 11 11 10 10 9 9 8 7 6 6 6 4 2 2 2 1 -0
14 14 14 14 14 14 14 14 14 13 12 12 11 11 11 11 11 11 11 11 11 11 12 12 12 12 11 11 10 10 10 9 8 8 7 6 6 5 4 2 1 1 1
13 13 14 14 14 14 14 14 14 13 13 12 12 11 11 12 11 11 11 11 11 11 11 12 12 12 11 10 10 10 10 9 8 8 8 7 5 5 4 4 3 2 2
13 13 13 14 14 13 13 13 13 13 13 13 12 12 11 11 11 11 11 11 11 11 11 11 11 12 11 10 10 10 9 10 9 9 8 6 6 6 5 4 3 3 3
13 13 13 13 13 14 13 13 12 12 13 12 12 12 12 12 11 11 11 11 11 11 11 11 11 11 11 10 9 10 9 10 10 9 7 7 6 6 6 4 4 3 3
13 13 13 13 13 13 13 12 12 12 12 12 11 11 11 11 11 10 10 11 11 11 10 10 10 11 11 10 9 9 9 9 9 9 8 6 6 6 6 5 4 3 3
13 13 13 13 14 13 12 12 11 11 11 12 11 11 10 11 11 10 10 11 10 11 10 10 10 11 11 10 9 9 9 9 9 9 8 8 7 6 5 5 4 4 3
12 13 13 13 12 12 12 12 11 11 11 11 11 11 11 10 10 11 9 10 10 10 10 10 9 10 10 10 9 8 9 9 9 9 9 8 7 7 6 6 5 5 4
10 11 11 12 12 11 11 11 11 11 11 11 10 10 10 10 9 9 10 10 9 9 9 10 8 9 9 9 8 8 9 9 9 9 8 8 8 7 6 6 6 5 4
9 9 9 9 9 10 10 10 10 11 11 11 12 11 10 10 10 10 10 10 9 9 9 9 8 7 8 8 9 8 8 8 8 8 8 8 8 8 7 6 6 6 5
8 9 9 9 9 9 10 10 10 11 10 10 10 9 9 7 7 8 8 9 9 10 10 9 8 7 7 8 8 8 8 8 8 8 8 8 8 7 7 7 6 5 6
8 8 8 9 9 10 10 10 10 10 10 9 8 8 7 6 7 7 8 9 10 10 9 9 8 8 7 6 6 7 7 8 7 8 8 8 8 7 7 7 6 6 6
8 8 8 8 9 9 10 10 10 9 10 9 9 7 7 7 7 8 8 9 10 10 10 9 8 8 7 7 6 7 7 7 7 7 8 8 8 7 7 7 6 6 6
7 8 8 8 8 9 9 10 10 9 9 10 9 9 9 9 9 8 9 9 10 11 11 8 8 7 7 6 6 6 6 6 7 7 8 8 7 7 7 7 7 6 6
5 6 7 8 8 8 9 9 10 10 9 9 9 9 9 9 9 9 10 10 10 10 9 8 7 7 7 7 6 6 6 6 7 7 7 7 7 7 7 6 6 6 6
5 5 6 7 7 7 7 8 9 9 9 9 9 9 9 9 9 10 10 10 10 8 7 6 7 7 6 6 6 6 6 5 6 6 6 7 7 7 7 6 6 6 6
4 5 6 7 7 6 6 7 7 7 8 8 8 9 9 9 9 9 9 9 8 7 7 6 7 7 6 6 6 6 6 6 6 6 6 6 6 6 6 6 6 6 5
4 5 6 6 6 6 6 6 6 6 7 7 7 8 8 8 8 8 7 7 7 7 6 6 6 6 6 6 6 6 6 6 5 5 5 5 6 6 7 6 6 6 5
Height
3189 3192 3195 3198 3200 3202 3204 3206 3207 3208 3209 3210 3210 3210 3210 3210 3210 3207 3205 3202 3197 3193 3189 3185 3181 3175 3170 3166 3162 3156 3151 3145 3139 3131 3124 3121 3115 3111 3107 3106 3103 3103 3100
3185 3188 3192 3195 3197 3200 3202 3203 3205 3206 3207 3207 3208 3208 3208 3208 3208 3206 3203 3202 3197 3193 3189 3184 3180 3174 3171 3165 3161 3156 3150 3144 3135 3129 3123 3119 3113 3111 3107 3105 3103 3103 3101
3181 3184 3188 3191 3194 3197 3199 3200 3202 3203 3204 3205 3206 3206 3206 3205 3206 3204 3202 3200 3197 3193 3189 3185 3180 3175 3170 3166 3162 3157 3149 3141 3132 3127 3123 3119 3115 3111 3106 3105 3103 3102 3102
3177 3181 3185 3188 3191 3194 3195 3197 3198 3200 3201 3202 3202 3202 3203 3203 3203 3202 3201 3200 3197 3193 3189 3185 3181 3175 3171 3166 3161 3156 3150 3142 3134 3128 3122 3118 3115 3111 3108 3106 3104 3102 3102
3175 3178 3182 3186 3189 3190 3192 3194 3196 3197 3197 3198 3199 3199 3199 3200 3199 3199 3199 3198 3196 3193 3189 3185 3180 3176 3171 3165 3161 3156 3151 3144 3136 3130 3124 3118 3114 3111 3109 3107 3104 3103 3103
3171 3174 3180 3183 3186 3188 3189 3191 3193 3194 3195 3194 3195 3196 3196 3197 3196 3195 3196 3196 3194 3193 3188 3183 3181 3176 3171 3167 3162 3157 3152 3145 3138 3132 3125 3120 3115 3111 3109 3108 3106 3105 3105
3167 3171 3176 3180 3182 3184 3186 3188 3190 3191 3191 3191 3192 3192 3193 3193 3193 3193 3193 3193 3193 3191 3188 3183 3180 3176 3171 3168 3163 3159 3153 3148 3141 3134 3128 3123 3118 3114 3111 3110 3108 3106 3106
3165 3169 3172 3176 3178 3179 3181 3184 3185 3186 3187 3187 3188 3187 3188 3189 3190 3190 3190 3190 3190 3189 3187 3183 3179 3175 3171 3168 3164 3160 3154 3149 3143 3137 3130 3124 3119 3117 3114 3111 3109 3107 3108
3163 3167 3170 3171 3174 3175 3177 3179 3180 3181 3182 3182 3182 3182 3183 3185 3186 3186 3186 3186 3187 3186 3184 3182 3179 3175 3171 3168 3164 3160 3157 3152 3146 3140 3133 3127 3123 3119 3117 3113 3111 3109 3110
3158 3161 3164 3166 3169 3170 3172 3174 3175 3176 3177 3177 3178 3177 3179 3180 3182 3182 3181 3182 3184 3183 3182 3180 3178 3175 3172 3168 3165 3161 3158 3154 3149 3145 3139 3133 3127 3123 3120 3116 3114 3114 3111
3154 3157 3159 3161 3162 3165 3167 3169 3170 3172 3173 3172 3171 3172 3173 3175 3177 3179 3178 3177 3180 3180 3179 3178 3176 3173 3172 3168 3165 3162 3159 3156 3152 3148 3142 3134 3130 3127 3124 3121 3117 3116 3116
3149 3152 3153 3155 3157 3159 3162 3164 3164 3166 3168 3167 3167 3167 3169 3170 3172 3173 3173 3171 3175 3175 3176 3175 3174 3172 3170 3168 3165 3162 3160 3157 3155 3149 3144 3138 3135 3132 3129 3127 3123 3121 3120
3146 3147 3148 3151 3153 3155 3157 3159 3160 3161 3163 3163 3162 3163 3163 3166 3167 3167 3167 3168 3168 3170 3171 3172 3171 3169 3168 3167 3165 3162 3159 3156 3156 3151 3148 3143 3140 3136 3133 3131 3129 3126 3126
3141 3142 3144 3146 3148 3149 3151 3152 3153 3155 3157 3158 3157 3157 3159 3160 3164 3164 3164 3164 3163 3164 3166 3167 3167 3167 3166 3165 3163 3163 3160 3158 3154 3152 3151 3148 3145 3141 3137 3136 3134 3131 3129
3136 3137 3139 3140 3142 3143 3143 3145 3147 3150 3151 3151 3152 3153 3154 3156 3158 3160 3160 3158 3158 3160 3160 3161 3162 3163 3163 3163 3162 3161 3160 3159 3157 3156 3154 3153 3149 3145 3141 3141 3140 3138 3136
3131 3133 3134 3135 3136 3137 3138 3139 3140 3142 3144 3145 3146 3146 3147 3150 3149 3152 3153 3151 3151 3155 3157 3157 3158 3159 3159 3159 3159 3160 3159 3158 3157 3156 3155 3154 3152 3149 3146 3145 3143 3143 3141
3127 3128 3128 3129 3129 3131 3132 3133 3133 3135 3137 3137 3137 3137 3137 3141 3143 3143 3145 3147 3147 3150 3150 3152 3153 3155 3156 3156 3156 3156 3157 3157 3157 3155 3154 3154 3153 3151 3150 3148 3147 3146 3145
3123 3124 3125 3125 3126 3127 3129 3129 3130 3131 3131 3129 3125 3122 3122 3125 3131 3136 3138 3140 3142 3143 3145 3147 3147 3148 3151 3152 3152 3153 3154 3155 3155 3155 3154 3154 3155 3153 3152 3151 3150 3150 3150
3119 3120 3121 3122 3123 3124 3125 3126 3127 3127 3126 3122 3117 3115 3114 3116 3120 3124 3129 3133 3135 3136 3136 3137 3137 3138 3142 3145 3149 3149 3151 3153 3153 3153 3154 3153 3154 3154 3153 3153 3153 3152 3153
3116 3117 3117 3118 3119 3120 3121 3122 3123 3123 3121 3118 3116 3113 3113 3115 3119 3122 3124 3126 3128 3128 3129 3131 3131 3133 3136 3138 3139 3143 3147 3149 3150 3151 3152 3152 3152 3154 3154 3154 3154 3154 3154
3111 3112 3113 3114 3115 3116 3117 3117 3118 3119 3118 3117 3117 3115 3116 3117 3119 3118 3120 3121 3121 3123 3123 3123 3124 3127 3129 3132 3134 3137 3142 3143 3146 3148 3149 3150 3151 3152 3153 3154 3154 3155 3155
3106 3107 3108 3108 3109 3110 3112 3112 3113 3115 3116 3115 3115 3115 3115 3115 3117 3115 3119 3120 3120 3120 3120 3119 3119 3120 3123 3127 3130 3133 3136 3139 3143 3144 3145 3148 3149 3149 3152 3153 3153 3155 3155
3101 3104 3105 3104 3104 3105 3105 3107 3109 3111 3112 3112 3112 3113 3113 3113 3116 3117 3116 3115 3114 3113 3112 3114 3115 3117 3119 3122 3125 3128 3130 3134 3137 3140 3142 3145 3145 3146 3149 3151 3152 3153 3154
3103 3103 3102 3101 3100 3101 3101 3102 3104 3106 3107 3108 3109 3110 3110 3111 3110 3110 3109 3108 3106 3106 3107 3108 3110 3112 3113 3115 3118 3121 3124 3127 3129 3135 3138 3140 3141 3143 3145 3147 3149 3151 3152
3097 3097 3097 3096 3096 3096 3098 3098 3098 3099 3101 3102 3104 3104 3105 3104 3103 3103 3102 3102 3101 3102 3103 3103 3105 3106 3108 3109 3111 3115 3116 3118 3122 3127 3133 3135 3137 3139 3140 3144 3145 3147 3148
3093 3093 3093 3093 3094 3093 3093 3094 3095 3095 3096 3097 3099 3099 3099 3099 3098 3098 3097 3098 3098 3098 3099 3100 3102 3103 3104 3105 3106 3106 3109 3112 3115 3122 3126 3129 3133 3135 3136 3140 3141 3142 3143
Wind_Speed
17 16 17 16 16 16 14 13 13 15 17 17 17 16 14 14 14 15 17 22 23 25 25 26 25 27 27 28 26 26 26 26 24 21 22 22 22 16 16 15 14 14 15
8 15 14 16 17 15 15 15 15 15 16 18 17 18 16 15 15 15 16 20 22 24 26 26 27 28 28 29 28 28 29 31 30 25 23 21 18 7 13 15 15 14 16
8 12 14 16 16 15 15 15 15 16 16 17 17 18 18 16 15 15 16 19 21 24 26 26 27 27 29 28 27 27 30 33 31 29 26 21 16 12 11 12 13 17 9
6 9 12 13 14 14 15 16 17 17 17 18 18 18 18 18 16 16 16 17 20 23 26 26 27 27 29 29 28 28 30 32 28 29 26 23 17 11 9 10 10 12 9
16 11 10 9 10 12 14 16 16 18 18 19 18 19 18 19 18 18 16 17 19 21 24 26 25 28 28 29 29 29 30 31 27 28 26 23 18 12 9 9 10 10 10
27 21 17 15 14 15 15 14 14 14 14 18 20 21 19 18 20 20 17 17 18 20 22 26 25 27 28 27 27 28 31 32 28 28 29 27 22 14 10 9 7 10 8
31 27 21 19 20 21 21 21 19 18 17 18 19 21 21 19 20 21 18 18 17 19 21 25 24 25 27 27 26 25 28 31 28 30 30 28 23 16 11 8 8 11 7
33 33 29 26 26 28 27 27 27 26 24 23 22 20 21 20 20 20 19 19 17 18 19 23 25 25 26 26 26 25 28 31 28 29 32 31 24 15 12 11 9 8 6
30 33 33 32 31 30 29 27 25 28 27 28 25 24 21 21 19 21 20 19 17 17 18 21 23 23 24 25 26 24 23 27 26 27 31 30 28 15 12 12 12 10 7
26 29 32 33 29 28 28 24 21 21 23 26 27 24 21 18 18 21 23 21 19 17 18 19 22 22 22 23 23 23 23 25 23 24 27 26 26 21 14 14 12 9 10
22 23 28 31 29 26 25 22 22 23 21 22 24 22 19 18 17 19 22 24 20 18 18 18 20 22 21 21 20 20 20 22 20 21 26 32 28 22 18 14 13 10 8
19 19 17 19 18 17 20 24 26 24 21 18 17 18 18 18 17 18 20 23 20 17 18 16 18 19 18 17 17 18 17 18 19 20 24 28 24 20 20 17 13 13 11
17 16 18 20 23 22 24 25 26 22 20 18 15 14 15 16 14 15 16 17 19 17 17 15 16 19 18 15 15 14 15 17 19 20 20 23 21 19 19 18 14 13 12
20 20 19 18 21 24 24 29 30 29 22 19 17 16 15 16 13 14 14 12 14 13 13 12 14 18 18 15 14 12 12 13 17 17 16 16 18 16 18 16 13 13 11
18 19 17 17 19 20 22 26 30 29 26 23 24 23 22 24 18 15 17 16 16 16 14 15 13 14 17 16 13 11 10 10 10 11 10 11 14 18 18 15 13 13 13
18 22 21 18 19 17 13 18 24 31 33 31 33 35 32 27 24 21 22 20 22 22 20 17 13 14 15 14 12 11 8 9 7 8 8 9 11 15 16 15 14 11 10
14 13 14 16 15 14 16 18 21 24 28 33 39 44 46 39 30 29 31 29 24 24 21 21 17 15 15 11 9 9 8 8 7 5 5 5 7 9 11 13 15 16 11
15 12 10 9 10 9 11 11 11 15 21 28 31 37 41 46 50 37 34 29 27 28 25 37 26 17 14 11 9 11 10 6 9 5 2 1 3 3 5 8 9 11 12
11 9 8 11 12 14 16 15 14 14 16 17 22 18 19 14 10 14 20 26 25 28 25 22 27 21 20 28 28 27 20 9 10 8 4 1 3 4 1 3 4 5 7
10 12 10 9 6 9 14 15 15 14 14 16 14 6 8 13 18 17 18 21 21 19 24 27 22 27 24 21 25 33 25 10 11 11 8 5 4 7 6 2 1 4 4
10 12 14 12 11 9 9 11 14 15 12 6 9 6 3 3 7 11 15 19 20 23 23 22 21 22 19 19 18 19 16 9 12 14 11 10 6 8 10 8 5 4 3
14 14 14 14 14 14 15 12 13 17 19 15 15 14 12 10 10 12 17 20 21 17 13 12 18 21 17 20 24 23 16 12 13 15 14 14 11 9 12 12 8 7 6
18 15 12 11 13 14 16 15 13 17 17 17 17 16 17 18 21 17 15 15 17 17 12 11 18 18 17 22 27 28 29 24 28 18 18 18 15 12 11 14 14 12 11
8 8 6 6 8 11 10 12 14 14 14 14 13 11 11 13 12 13 14 17 19 20 20 19 18 22 26 22 28 31 29 29 29 27 22 21 18 16 15 14 15 16 15
7 7 6 7 8 7 7 6 8 12 12 14 12 11 11 12 12 13 14 16 19 17 15 15 17 14 15 22 26 30 31 31 33 36 29 22 19 19 18 18 15 15 17
10 10 10 9 8 6 2 4 4 6 9 10 10 9 7 6 8 8 5 6 8 9 10 9 8 11 13 17 18 23 28 27 28 25 22 16 18 23 21 22 20 19 17
Wind_Direction
235 238 245 247 246 248 250 252 254 255 256 261 277 290 304 315 331 346 349 351 353 356 357 358 354 352 354 351 357 351 350 352 342 333 339 335 327 334 319 327 330 348 356
248 238 239 248 252 256 260 260 260 263 264 265 268 282 291 305 320 332 334 345 351 353 356 357 352 349 355 352 356 352 351 354 349 352 347 344 347 336 324 326 333 346 339
237 253 236 242 248 253 257 263 265 268 272 273 273 281 289 296 308 317 324 337 346 349 352 352 352 350 351 353 357 353 353 356 352 357 357 355 4 356 335 338 342 350 24
248 243 246 246 253 253 255 256 262 266 271 274 278 281 286 294 301 304 313 328 338 345 346 350 349 352 349 353 357 358 357 357 356 1 356 354 5 8 355 357 356 1 17
243 234 234 232 235 242 250 259 264 267 270 273 275 278 285 291 295 297 303 317 330 341 342 345 346 350 349 350 358 359 358 360 2 5 4 3 1 17 19 5 4 15 19
242 238 238 235 245 245 249 260 271 277 282 282 277 278 281 285 290 296 304 310 322 334 337 337 346 346 345 350 358 1 359 1 5 10 11 9 8 11 20 8 5 24 23
237 248 243 252 258 261 264 262 269 277 280 289 293 280 276 278 285 293 300 306 315 323 331 331 342 341 342 348 357 2 0 4 6 14 12 14 19 28 31 27 36 39 30
237 247 258 261 267 268 273 275 273 274 276 280 287 293 276 270 277 285 292 297 307 314 323 326 336 340 340 343 352 6 3 3 6 14 14 17 17 21 34 29 25 26 24
244 250 258 265 268 268 272 274 274 274 275 273 278 285 283 268 272 282 285 291 302 308 314 321 329 333 338 341 349 359 12 4 7 11 17 17 20 20 29 35 29 52 74
242 247 253 257 262 265 270 268 270 268 271 271 273 279 284 266 268 277 283 286 295 302 306 314 320 327 337 338 348 353 6 9 7 8 21 26 26 25 31 38 40 62 73
246 251 257 260 260 258 265 256 264 272 277 281 276 270 273 270 269 273 279 286 292 297 299 307 314 322 331 336 344 350 1 7 4 9 19 28 27 26 25 34 42 57 52
242 246 250 253 258 250 252 260 265 272 275 281 282 274 273 276 276 274 276 281 288 292 296 303 306 314 322 329 338 345 356 4 2 15 21 30 27 29 29 37 51 59 77
241 242 247 253 258 259 262 261 259 265 271 272 281 280 285 279 275 267 270 282 291 289 294 298 300 302 312 321 326 338 347 356 1 22 21 27 27 26 36 34 52 76 83
247 243 245 250 255 258 260 256 253 251 244 256 264 269 267 277 278 269 275 283 285 283 281 280 288 294 306 313 314 329 338 350 2 18 18 24 26 29 41 42 55 68 72
244 241 243 249 253 254 256 258 256 252 253 255 260 272 271 280 268 266 278 275 287 281 268 265 276 284 291 306 304 311 325 335 0 16 11 18 32 38 42 47 50 55 70
235 251 261 244 240 240 249 253 249 249 255 261 265 270 273 271 269 274 271 269 262 276 279 274 274 276 276 288 295 296 310 312 330 12 17 5 34 43 52 50 54 53 71
222 240 232 236 231 235 241 252 256 254 257 258 264 261 266 260 254 265 271 272 262 269 268 266 256 270 279 274 286 287 288 300 300 345 27 353 13 47 57 64 60 58 51
212 210 217 220 215 227 243 234 246 266 274 282 276 270 266 260 257 258 260 268 267 267 269 281 247 239 244 256 292 316 298 282 276 282 10 347 322 21 60 70 63 56 53
198 194 213 224 231 239 251 259 262 272 288 319 325 284 270 260 254 236 255 262 267 276 272 272 258 226 229 247 244 271 289 271 259 254 259 147 259 278 297 91 102 60 43
243 230 224 235 236 249 252 256 255 261 288 327 335 286 264 223 225 242 247 271 262 261 278 260 276 231 243 262 275 234 253 252 252 246 237 232 210 247 255 219 107 83 62
257 266 267 262 257 265 284 278 268 255 271 306 352 312 297 268 252 260 256 255 268 267 265 263 239 226 244 260 214 232 250 246 250 245 238 232 219 227 241 243 192 206 218
268 279 281 282 278 277 277 281 278 260 251 254 275 281 280 276 265 286 269 259 262 257 276 242 258 231 239 233 220 227 248 243 249 248 246 236 223 226 228 233 226 225 233
263 275 274 272 283 281 279 274 265 264 256 258 261 269 259 264 261 256 260 256 261 263 272 276 243 248 247 232 224 230 237 243 232 254 250 236 224 224 235 231 223 222 240
223 231 264 292 295 279 274 269 260 254 260 264 265 262 247 249 265 278 275 269 264 262 263 265 264 257 241 244 237 232 236 244 240 227 246 234 225 221 229 232 230 223 228
287 287 293 308 315 302 289 271 256 242 245 252 255 263 269 279 280 274 263 255 258 260 255 255 265 263 247 245 244 233 240 232 238 229 240 232 226 224 225 231 230 230 230
283 287 291 295 306 310 321 298 272 250 237 243 249 248 254 266 273 276 259 242 248 254 254 254 252 249 244 244 246 245 237 240 219 211 218 215 238 237 224 231 229 230 233